Location: Brno
(49.2000°N, 16.6330°E)
Time: 22:31:11
(UTC+02:00)

Vanguard 3 - Pass Details

Date: 26 July 2021
Orbit: 510 x 3260 km, 33.3° (Epoch: 22 September)

Event Time Altitude Azimuth Distance (km) Brightness Sun altitude
Rises 23:07:23 0° 259° (W) 7,024 12.1 -17.1°
Reaches altitude 10° 23:12:14 10° 254° (WSW) 6,137 11.7 -17.5°
Maximum altitude 23:30:17 45° 191° (S) 3,784 10.1 -18.7°
Enters shadow 23:42:49 16° 130° (SE) 4,669 10.5 -19.5°
